Pasco, WA
on Friday, February 15, 2013

Friday
Previous Day Next Day
Daily Summary
 ActualAverageRecord
Temperature
Mean Temperature °F 39°F  
Max Temperature 57°F 49°F 67°F (1982)
Min Temperature 25°F 28°F 17°F (2005)
Degree Days
Heating Degree Days 24 26  
Month to date heating degree days 387 409  
Since 1 July heating degree days 3298 3560  
Cooling Degree Days 0 0  
Month to date cooling degree days 0 0  
Year to date cooling degree days 0 0  
Moisture
Dew Point 31°F   
Average Humidity 74    
Maximum Humidity 100    
Minimum Humidity 47    
Precipitation
Precipitation 0.00 in in 0.32 in (2000)
Month to date precipitation T  
Year to date precipitation 0.36  
Snow
Snow 0.00 in in in ()
Snow Depth 0.00 in   
Wind
Wind Speed 3 mph   
Max Wind Speed 8 mph   
Max Gust Speed 10 mph   
Visibility 10 miles   
Events     

Key: T is trace of precipitation, MM is missing value
Source: NWS Daily Summary
Time(PST)TemperatureDew PointHumidity Pressure Visibility Wind DirectionWind SpeedGust SpeedPrecipitationEvents Conditions
12:53 AM 30.9°F 28.9°F 92% 30.56 in 10.0 miles North 3.5 mph - N/A   Clear
1:53 AM 28.9°F 27.0°F 92% 30.57 in 10.0 miles NNW 5.8 mph - N/A   Clear
2:53 AM 28.0°F 26.1°F 92% 30.56 in 10.0 miles Calm Calm - N/A   Clear
3:53 AM 27.0°F 26.1°F 96% 30.56 in 10.0 miles NW 3.5 mph - N/A   Clear
4:53 AM 26.1°F 24.1°F 92% 30.55 in 10.0 miles Calm Calm - N/A   Clear
5:53 AM 27.0°F 25.0°F 92% 30.55 in 10.0 miles Calm Calm - N/A   Clear
6:53 AM 26.1°F 25.0°F 96% 30.56 in 10.0 miles Calm Calm - N/A   Clear
7:53 AM 28.9°F 27.0°F 92% 30.57 in 10.0 miles Calm Calm - N/A   Partly Cloudy
8:53 AM 33.1°F 30.0°F 89% 30.58 in 10.0 miles Calm Calm - N/A   Clear
9:53 AM 39.9°F 34.0°F 79% 30.56 in 10.0 miles NW 5.8 mph - N/A   Clear
10:53 AM 45.0°F 35.1°F 68% 30.54 in 10.0 miles NNW 6.9 mph - N/A   Clear
11:53 AM 48.9°F 36.0°F 61% 30.51 in 10.0 miles NNW 5.8 mph - N/A   Clear
12:53 PM 52.0°F 37.0°F 57% 30.47 in 10.0 miles Calm Calm - N/A   Clear
1:53 PM 55.0°F 36.0°F 49% 30.43 in 10.0 miles North 3.5 mph - N/A   Clear
2:53 PM 55.9°F 36.0°F 47% 30.40 in 10.0 miles North 4.6 mph - N/A   Clear
3:53 PM 55.9°F 37.0°F 49% 30.37 in 10.0 miles North 4.6 mph - N/A   Clear
4:53 PM 52.0°F 39.0°F 61% 30.35 in 10.0 miles NNW 5.8 mph - N/A   Clear
5:53 PM 42.1°F 35.1°F 76% 30.34 in 10.0 miles NW 5.8 mph - N/A   Clear
6:53 PM 39.0°F 34.0°F 82% 30.33 in 10.0 miles NW 5.8 mph - N/A   Clear
7:53 PM 36.0°F 32.0°F 86% 30.31 in 10.0 miles WNW 3.5 mph - N/A   Clear
8:53 PM 36.0°F 32.0°F 86% 30.30 in 10.0 miles West 3.5 mph - N/A   Clear
9:53 PM 34.0°F 30.9°F 89% 30.29 in 10.0 miles NNW 3.5 mph - N/A   Clear
10:53 PM 30.9°F 28.9°F 92% 30.29 in 10.0 miles NW 3.5 mph - N/A   Clear
11:53 PM 30.0°F 28.0°F 92% 30.28 in 10.0 miles Calm Calm - N/A   Clear
Moon Phase
Feb. 15 Feb. 17 Feb. 25 Mar. 04 Mar. 11
Sunrise:06:59 AM (PST) Moon Rise:09:15 AM (PST)2/15
Sunset:05:22 PM (PST) Moon Set:11:52 PM (PST)2/15

Copyright © 2014 The Weather Underground, Inc.